Date,TemperatureHighF,TemperatureAvgF,TemperatureLowF,DewpointHighF,DewpointAvgF,DewpointLowF,HumidityHigh,HumidityAvg,HumidityLow,PressureMaxIn,PressureMinIn,WindSpeedMaxMPH,WindSpeedAvgMPH,GustSpeedMaxMPH,PrecipitationSumIn
2013-8-1,75,64,54,53,39,31,81,42,23,29.92,29.83,12,2,13,0.08
2013-8-2,64,59,56,55,51,44,92,77,49,30.01,29.86,12,3,12,1.14
2013-8-3,77,65,57,54,45,33,86,53,22,30.03,29.98,6,1,6,0.04
2013-8-4,84,70,54,55,42,32,86,42,19,30.03,29.89,8,1,8,0.04
2013-8-5,87,71,57,56,40,31,82,36,16,29.95,29.83,11,1,11,0.04
2013-8-6,89,73,58,47,40,32,65,34,15,29.95,29.83,8,1,8,0.04
2013-8-7,92,74,57,56,38,26,82,32,12,29.92,29.80,13,2,13,0.04
2013-8-8,89,72,55,53,38,30,80,33,13,29.92,29.83,4,1,5,0.04
2013-8-9,91,76,58,55,41,36,73,31,17,29.86,29.77,13,2,13,0.59
2013-8-10,90,75,62,60,44,32,88,38,15,29.92,29.80,10,2,10,0.35
2013-8-11,88,78,59,58,41,35,82,30,19,29.95,29.83,10,2,10,0.00
2013-8-12,88,74,60,61,44,36,87,38,18,29.95,29.86,8,1,8,0.00
2013-8-13,87,73,60,48,40,32,64,33,16,30.03,29.92,8,1,8,0.00
2013-8-14,90,74,57,57,41,34,89,35,15,29.95,29.80,10,2,10,0.00
2013-8-15,89,71,61,56,40,30,79,34,15,29.92,29.80,8,1,8,0.00
2013-8-16,86,72,58,57,40,32,85,35,16,29.95,29.86,10,1,10,0.00
2013-8-17,88,73,59,44,38,30,56,31,16,29.98,29.86,15,3,15,0.00
2013-8-18,86,70,56,44,36,28,64,31,16,30.03,29.89,14,3,14,0.00
2013-8-19,84,71,55,47,34,28,74,29,16,29.98,29.89,15,4,15,0.00
2013-8-20,82,68,56,34,30,23,38,25,14,30.01,29.92,16,3,16,0.00
2013-8-21,84,66,48,48,32,25,81,32,13,30.03,29.92,8,1,8,0.00
2013-8-22,88,71,53,51,35,28,81,30,13,29.95,29.74,17,2,17,0.00
2013-8-23,83,72,59,58,38,31,83,32,20,29.80,29.71,13,3,13,0.00
2013-8-24,83,69,56,45,38,31,64,36,19,29.83,29.71,6,1,6,0.00
2013-8-25,83,69,58,58,44,34,88,46,19,29.89,29.74,17,2,17,0.08
2013-8-26,79,67,56,57,41,31,89,44,21,29.95,29.83,14,1,14,0.00
2013-8-27,82,68,53,47,38,30,71,37,19,29.95,29.77,8,1,8,0.00
2013-8-28,82,69,56,49,38,32,75,36,19,29.86,29.74,13,2,13,0.00
2013-8-29,79,67,54,57,40,33,87,40,20,29.98,29.83,15,2,15,0.00
2013-8-30,80,68,56,57,38,28,87,37,17,30.06,29.95,10,3,11,0.00
2013-8-31,81,65,50,41,34,26,64,35,15,30.06,29.89,10,1,10,0.00